Location: Falkner
(32.6954°N, 86.0502°W)
Time: 12:29:12
(UTC+00:00)

CZ-4B R/B - Pass Details

Date: 29 October 2020
Orbit: 388 x 461 km, 97.6° (Epoch: 04 December)

Event Time Altitude Azimuth Distance (km) Brightness Sun altitude
Rises 23:25:17 0° 6° (N) 2,352 4.9 -6.9°
Reaches altitude 10° 23:27:19 10° 2° (N) 1,473 3.9 -7.3°
Maximum altitude 23:30:24 55° 284° (WNW) 487 2.0 -8.0°
Drops below altitude 10° 23:33:23 10° 205° (SSW) 1,432 4.5 -8.6°
Sets 23:35:21 0° 201° (SSW) 2,277 5.4 -9.0°
